Powrót do katalogu

STARLINK-3553

AktywnyŁącznośćVLEO
NORAD 51866·PAYLOAD·🇺🇸 United States

Wystrzelony Mar 3, 2022 z Cape Canaveral Space Force Station

Loading…

Następne Przeloty (najbliższe 24 godziny)

TLE

ŚwieżeSource: CelesTrak SupGP

Epoka: Sep 15, 2026, 01:22 UTC

1 51866C 22022Q   26258.05743056 -.00029624  00000+0 -89886-3 0  2581
2 51866  53.1580 229.4114 0001343  92.2618  19.4046 15.33565427    18

Śledź STARLINK-3553 w czasie rzeczywistym z AllMySat

Download on the App Store